• Em Portugal
  • Lista de países
  • Para 7 dias
  • Temperatura da água
  • Mapas de satélite
  • Mapa do tempo
  • Widgets de tempo
  • user-avatar
    Iniciar Sessão

    Previsão horária em Trzebiec

    Hoje, 20 Outubro, Sábado

    Tempo Temperatura Precipitação Vento Pressão Humidade
    00:00 +8°C° 0 mm 2 m/s 763 mmHg 84%
    01:00 +8°C° 0 mm 2 m/s 763 mmHg 86%
    02:00 +8°C° 0 mm 2 m/s 763 mmHg 87%
    03:00 +7°C° 0 mm 2 m/s 763 mmHg 89%
    04:00 +7°C° 0 mm 2 m/s 763 mmHg 90%
    05:00 +7°C° 0 mm 2 m/s 763 mmHg 90%
    06:00 +7°C° 0 mm 2 m/s 763 mmHg 90%
    07:00 +7°C° 0 mm 2 m/s 763 mmHg 90%
    08:00 +8°C° 0.1 mm 3 m/s 764 mmHg 85%
    09:00 +9°C° 0.1 mm 3 m/s 764 mmHg 79%
    10:00 +10°C° 0.1 mm 3 m/s 764 mmHg 74%
    11:00 +11°C° 0.1 mm 4 m/s 764 mmHg 71%
    12:00 +11°C° 0.1 mm 4 m/s 764 mmHg 69%
    13:00 +11°C° 0.1 mm 4 m/s 764 mmHg 66%
    14:00 +11°C° 0.1 mm 4 m/s 764 mmHg 68%
    15:00 +11°C° 0.1 mm 4 m/s 764 mmHg 69%
    16:00 +11°C° 0.1 mm 4 m/s 763 mmHg 70%
    17:00 +10°C° 0.1 mm 4 m/s 764 mmHg 75%
    18:00 +10°C° 0.1 mm 3 m/s 764 mmHg 79%
    19:00 +9°C° 0.1 mm 3 m/s 764 mmHg 83%
    20:00 +9°C° 0.1 mm 3 m/s 764 mmHg 84%
    21:00 +9°C° 0.1 mm 3 m/s 764 mmHg 86%
    22:00 +9°C° 0.1 mm 3 m/s 764 mmHg 87%
    23:00 +8°C° 0 mm 2 m/s 764 mmHg 89%

    Amanhã, 21 Outubro, Domingo

    Tempo Temperatura Precipitação Vento Pressão Humidade
    00:00 +8°C° 0 mm 2 m/s 764 mmHg 92%
    01:00 +8°C° 0 mm 2 m/s 764 mmHg 94%
    02:00 +8°C° 0 mm 2 m/s 764 mmHg 94%
    03:00 +7°C° 0 mm 2 m/s 764 mmHg 94%
    04:00 +7°C° 0 mm 2 m/s 764 mmHg 94%
    05:00 +8°C° 0 mm 1 m/s 764 mmHg 94%
    06:00 +8°C° 0 mm 1 m/s 765 mmHg 94%
    07:00 +8°C° 0 mm 1 m/s 765 mmHg 94%
    08:00 +10°C° 0 mm 1 m/s 765 mmHg 88%
    09:00 +11°C° 0 mm 1 m/s 765 mmHg 82%
    10:00 +13°C° 0 mm 1 m/s 766 mmHg 75%
    11:00 +14°C° 0 mm 1 m/s 765 mmHg 70%
    12:00 +14°C° 0 mm 1 m/s 765 mmHg 66%
    13:00 +15°C° 0 mm 1 m/s 765 mmHg 61%
    14:00 +15°C° 0 mm 1 m/s 765 mmHg 63%
    15:00 +14°C° 0 mm 1 m/s 765 mmHg 66%
    16:00 +14°C° 0 mm 1 m/s 765 mmHg 68%
    17:00 +12°C° 0 mm 2 m/s 765 mmHg 72%
    18:00 +10°C° 0 mm 2 m/s 765 mmHg 76%
    19:00 +9°C° 0 mm 2 m/s 765 mmHg 81%
    20:00 +9°C° 0 mm 2 m/s 765 mmHg 82%
    21:00 +8°C° 0 mm 2 m/s 765 mmHg 83%
    22:00 +8°C° 0 mm 3 m/s 764 mmHg 85%
    23:00 +8°C° 0 mm 3 m/s 764 mmHg 85%

    Depois de amanhã, 22 Outubro, Segunda-feira

    Tempo Temperatura Precipitação Vento Pressão Humidade
    00:00 +7°C° 0 mm 3 m/s 764 mmHg 86%
    01:00 +7°C° 0 mm 3 m/s 764 mmHg 87%
    02:00 +7°C° 0 mm 3 m/s 763 mmHg 87%
    03:00 +6°C° 0 mm 4 m/s 763 mmHg 88%
    04:00 +5°C° 0 mm 4 m/s 763 mmHg 88%
    05:00 +5°C° 0 mm 4 m/s 762 mmHg 89%
    06:00 +5°C° 0 mm 4 m/s 762 mmHg 90%
    07:00 +5°C° 0 mm 4 m/s 762 mmHg 90%
    08:00 +6°C° 0.1 mm 4 m/s 762 mmHg 87%
    09:00 +7°C° 0.1 mm 4 m/s 762 mmHg 84%
    10:00 +8°C° 0.1 mm 4 m/s 762 mmHg 80%
    11:00 +8°C° 0.3 mm 4 m/s 762 mmHg 83%
    12:00 +8°C° 0.3 mm 4 m/s 762 mmHg 86%
    13:00 +8°C° 0.3 mm 4 m/s 762 mmHg 88%
    14:00 +8°C° 0.4 mm 4 m/s 762 mmHg 85%
    15:00 +8°C° 0.4 mm 4 m/s 762 mmHg 82%
    16:00 +8°C° 0.4 mm 4 m/s 762 mmHg 79%
    17:00 +8°C° 0.1 mm 4 m/s 763 mmHg 78%
    18:00 +7°C° 0.1 mm 4 m/s 763 mmHg 77%
    19:00 +7°C° 0.1 mm 4 m/s 763 mmHg 75%
    20:00 +7°C° 0 mm 4 m/s 763 mmHg 76%
    21:00 +6°C° 0 mm 4 m/s 763 mmHg 76%
    22:00 +6°C° 0 mm 4 m/s 763 mmHg 77%
    23:00 +6°C° 0 mm 4 m/s 763 mmHg 77%

    23 Outubro, Terça-feira

    Tempo Temperatura Precipitação Vento Pressão Humidade
    00:00 +6°C° 0 mm 4 m/s 763 mmHg 78%
    01:00 +6°C° 0 mm 4 m/s 763 mmHg 78%
    02:00 +6°C° 0 mm 4 m/s 763 mmHg 80%
    03:00 +5°C° 0 mm 3 m/s 763 mmHg 81%
    04:00 +5°C° 0 mm 3 m/s 763 mmHg 82%
    05:00 +5°C° 0 mm 4 m/s 762 mmHg 84%
    06:00 +5°C° 0 mm 4 m/s 762 mmHg 85%
    07:00 +5°C° 0 mm 5 m/s 761 mmHg 87%
    08:00 +5°C° 0.1 mm 6 m/s 760 mmHg 84%
    09:00 +6°C° 0.1 mm 7 m/s 760 mmHg 80%
    10:00 +6°C° 0.1 mm 8 m/s 759 mmHg 77%
    11:00 +6°C° 1 mm 8 m/s 758 mmHg 79%
    12:00 +6°C° 1 mm 9 m/s 756 mmHg 82%
    13:00 +6°C° 1 mm 10 m/s 755 mmHg 84%
    14:00 +6°C° 1.6 mm 10 m/s 753 mmHg 85%
    15:00 +7°C° 1.6 mm 11 m/s 752 mmHg 85%
    16:00 +7°C° 1.6 mm 11 m/s 750 mmHg 86%
    17:00 +8°C° 2.4 mm 11 m/s 749 mmHg 86%
    18:00 +8°C° 2.4 mm 11 m/s 748 mmHg 87%
    19:00 +9°C° 2.4 mm 12 m/s 747 mmHg 88%
    20:00 +10°C° 1.6 mm 12 m/s 746 mmHg 87%
    21:00 +10°C° 1.6 mm 12 m/s 745 mmHg 85%
    22:00 +12°C° 1.6 mm 12 m/s 744 mmHg 83%
    23:00 +10°C° 0.6 mm 12 m/s 744 mmHg 80%

    24 Outubro, Quarta-feira

    Tempo Temperatura Precipitação Vento Pressão Humidade
    00:00 +10°C° 0.6 mm 12 m/s 744 mmHg 76%
    01:00 +11°C° 0.6 mm 11 m/s 744 mmHg 73%
    02:00 +9°C° 0.1 mm 10 m/s 745 mmHg 73%
    03:00 +10°C° 0.1 mm 9 m/s 746 mmHg 73%
    04:00 +9°C° 0.1 mm 8 m/s 747 mmHg 73%
    05:00 +7°C° 0 mm 8 m/s 747 mmHg 72%
    06:00 +8°C° 0 mm 7 m/s 748 mmHg 71%
    07:00 +6°C° 0 mm 7 m/s 749 mmHg 69%
    08:00 +8°C° 0 mm 7 m/s 749 mmHg 63%
    09:00 +8°C° 0 mm 7 m/s 750 mmHg 57%
    10:00 +9°C° 0 mm 8 m/s 751 mmHg 51%
    11:00 +9°C° 0 mm 8 m/s 751 mmHg 48%
    12:00 +9°C° 0 mm 8 m/s 751 mmHg 45%
    13:00 +9°C° 0 mm 8 m/s 752 mmHg 41%
    14:00 +9°C° 0 mm 7 m/s 752 mmHg 45%
    15:00 +8°C° 0 mm 6 m/s 752 mmHg 48%
    16:00 +8°C° 0 mm 5 m/s 752 mmHg 52%
    17:00 +7°C° 0 mm 5 m/s 752 mmHg 57%
    18:00 +7°C° 0 mm 5 m/s 753 mmHg 62%
    19:00 +6°C° 0 mm 4 m/s 753 mmHg 68%
    20:00 +6°C° 0 mm 4 m/s 753 mmHg 69%
    21:00 +6°C° 0 mm 4 m/s 753 mmHg 71%
    22:00 +6°C° 0 mm 4 m/s 753 mmHg 72%
    23:00 +6°C° 0 mm 4 m/s 753 mmHg 74%

    25 Outubro, Quinta-feira

    Tempo Temperatura Precipitação Vento Pressão Humidade
    00:00 +6°C° 0 mm 4 m/s 753 mmHg 76%
    01:00 +6°C° 0 mm 4 m/s 753 mmHg 78%
    02:00 +6°C° 0.1 mm 5 m/s 752 mmHg 81%
    03:00 +7°C° 0.1 mm 6 m/s 752 mmHg 84%
    04:00 +8°C° 0.1 mm 6 m/s 751 mmHg 87%
    05:00 +9°C° 0.3 mm 8 m/s 751 mmHg 85%
    06:00 +10°C° 0.3 mm 9 m/s 750 mmHg 84%
    07:00 +11°C° 0.3 mm 10 m/s 749 mmHg 83%
    08:00 +9°C° 0.1 mm 10 m/s 749 mmHg 81%
    09:00 +9°C° 0.1 mm 10 m/s 749 mmHg 79%
    10:00 +8°C° 0.1 mm 10 m/s 749 mmHg 77%
    11:00 +9°C° 0.1 mm 10 m/s 749 mmHg 77%
    12:00 +9°C° 0.1 mm 10 m/s 749 mmHg 76%
    13:00 +9°C° 0.1 mm 11 m/s 748 mmHg 76%
    14:00 +9°C° 0.1 mm 11 m/s 748 mmHg 75%
    15:00 +9°C° 0.1 mm 11 m/s 748 mmHg 74%
    16:00 +11°C° 0.1 mm 11 m/s 747 mmHg 73%
    17:00 +9°C° 0.3 mm 11 m/s 747 mmHg 76%
    18:00 +9°C° 0.3 mm 10 m/s 747 mmHg 78%
    19:00 +9°C° 0.3 mm 10 m/s 747 mmHg 80%
    20:00 +9°C° 0.7 mm 10 m/s 746 mmHg 77%
    21:00 +9°C° 0.7 mm 11 m/s 746 mmHg 73%
    22:00 +8°C° 0.7 mm 11 m/s 746 mmHg 69%
    23:00 +8°C° 0.2 mm 11 m/s 746 mmHg 69%
    Mostrar mais